GFSFLT2_sfc_rhum_000.txt.gz
RH
63 63 62 56 53 56 61 64 68 75 61 54 54 54 56 56 57 60 64 62 65 64 64 63 64 64 63
77 65 61 60 63 75 65 61 67 56 58 56 56 56 57 61 69 66 67 64 62 63 66 71 70 69 67
74 66 66 75 72 70 73 69 52 55 57 58 60 61 64 63 60 61 63 65 70 64 67 65 64 63 66
74 79 83 86 74 66 61 59 61 53 62 64 62 61 61 62 61 60 60 60 59 58 61 61 60 61 61
95 91 74 63 65 64 67 67 70 66 62 60 61 62 63 65 63 64 65 65 64 68 69 67 71 67 62
83 72 66 66 65 74 88 85 86 62 68 75 67 66 63 62 65 66 65 64 64 64 68 67 66 67 67
68 68 70 73 95 93 90 90 83 70 75 87 67 68 60 54 65 66 67 66 67 70 75 70 67 66 68
64 72 82 68 64 64 81 91 82 67 63 91 69 70 61 61 68 69 68 67 68 74 73 72 72 76 76
75 66 64 66 68 75 92 93 84 69 63 73 71 74 69 68 64 68 64 61 63 65 65 65 67 65 63
62 65 66 69 68 68 83 96 93 91 62 88 83 82 90 64 72 64 67 68 67 68 69 69 68 69 83
68 68 68 66 68 75 83 94 95 94 72 85 94 90 92 92 70 65 64 70 74 75 78 80 86 88 95
74 72 78 86 85 85 86 88 88 96 93 95 96 96 95 91 86 67 68 75 86 92 90 91 94 97 98
81 86 86 86 87 86 85 85 85 84 86 86 96 95 96 95 93 89 92 83 85 94 95 96 95 95 97
84 78 74 83 84 83 93 87 93 84 79 84 88 97 96 92 96 94 94 97 93 93 97 97 98 97 98
87 83 78 81 84 83 91 93 93 90 87 83 84 88 91 97 96 90 94 95 97 98 98 97 94 98 98
90 90 90 91 92 88 88 92 94 90 92 89 91 90 81 88 86 96 92 94 97 98 98 98 95 96 97
92 93 94 92 90 91 91 92 91 90 90 90 95 96 94 93 86 73 98 97 97 95 98 97 98 98 98

GFSFLT2_sfc_rhum_003.txt.gz
RH
48 46 45 44 39 42 46 46 49 58 56 56 56 57 60 64 64 65 64 64 66 69 70 71 69 68 65
57 52 47 45 48 55 52 42 42 52 57 57 57 57 57 62 67 69 68 71 64 63 67 66 66 65 63
62 52 53 58 69 52 44 41 36 50 56 58 60 61 62 63 62 63 63 65 63 62 67 68 68 69 68
68 81 68 56 53 50 50 49 49 44 54 57 59 59 60 61 61 61 62 63 63 63 62 64 64 64 62
78 69 62 52 53 53 57 59 60 56 54 52 50 52 54 61 60 63 64 65 66 66 68 69 66 65 63
76 59 52 52 54 65 77 77 79 50 54 60 54 55 52 51 61 64 65 65 65 66 67 68 68 64 69
56 54 59 62 91 89 80 74 72 61 64 72 55 58 50 45 62 64 66 66 67 71 75 74 69 67 67
54 62 75 66 60 61 72 83 70 57 54 81 56 58 51 51 64 66 67 67 67 67 68 67 68 70 72
74 69 65 65 66 70 84 89 79 60 53 63 60 62 59 60 54 62 64 67 68 69 68 66 65 65 62
50 51 56 56 67 59 78 95 90 88 50 82 71 70 80 48 51 56 55 63 67 69 72 75 73 72 80
54 54 54 53 55 63 73 93 95 92 64 82 90 85 86 87 62 56 58 66 76 72 76 82 93 94 95
60 60 68 79 80 81 82 86 84 93 90 95 96 94 93 88 81 61 64 73 81 90 88 88 86 87 97
70 80 80 81 86 85 85 83 84 83 85 86 94 94 93 94 92 84 82 80 85 94 95 96 94 91 95
74 67 64 79 80 79 87 83 88 81 80 83 90 97 95 88 92 90 87 95 89 96 98 97 97 97 97
76 74 69 74 79 78 84 88 88 87 84 79 85 87 88 93 92 82 79 86 87 97 98 97 93 98 97
84 86 87 87 88 85 84 87 90 86 87 86 86 89 81 81 65 84 86 87 88 94 98 97 91 88 96
89 90 92 92 88 88 87 87 88 85 88 87 93 94 92 90 74 68 93 91 92 87 95 97 98 97 98

GFSFLT2_sfc_rhum_009.txt.gz
RH
40 38 40 41 38 42 48 44 44 49 49 48 50 52 55 57 59 60 61 62 63 65 69 67 69 66 64
48 47 46 42 46 56 46 36 38 39 47 51 53 54 55 57 58 61 60 62 63 66 68 67 67 66 68
55 49 51 60 64 49 44 41 33 45 49 52 54 56 57 57 57 57 57 58 60 61 63 65 65 66 67
64 72 80 62 53 50 48 48 51 42 51 52 55 55 55 54 57 58 59 60 60 61 62 62 65 68 70
83 88 65 55 52 50 55 60 62 61 56 54 52 52 54 56 55 56 57 58 60 63 66 67 73 70 69
87 66 61 50 52 65 76 91 81 56 59 59 57 59 55 53 54 56 58 60 62 65 68 70 73 72 68
59 53 55 57 77 88 83 75 76 64 64 73 60 60 54 45 56 58 62 64 65 67 71 75 75 74 74
50 54 64 76 95 72 68 76 69 64 61 80 60 62 55 56 62 62 62 60 58 60 64 68 78 84 80
56 64 62 57 56 61 81 86 85 69 60 70 65 70 65 65 58 53 54 59 64 64 66 65 68 82 91
62 53 50 51 54 55 73 96 92 90 61 80 82 78 87 59 60 61 63 63 62 65 64 65 70 87 96
54 52 52 53 55 65 74 90 96 93 70 78 94 90 92 88 69 64 64 65 68 67 72 71 72 79 97
57 60 67 76 78 79 79 82 84 93 86 89 96 96 95 92 85 66 66 70 79 83 83 79 81 89 88
70 79 79 78 81 81 81 80 82 80 81 83 92 95 96 94 92 88 80 77 82 88 86 96 96 97 97
75 71 68 78 79 79 85 83 89 84 78 82 85 89 96 94 92 92 84 92 84 85 88 95 86 86 97
81 81 74 78 82 80 84 90 93 88 84 79 80 82 85 93 96 86 84 85 82 84 90 94 86 85 94
86 88 91 90 88 87 85 89 93 88 89 85 86 91 84 79 71 84 83 83 83 86 90 98 90 82 81
92 91 93 93 87 90 90 91 90 86 85 85 92 96 95 91 73 66 93 92 90 90 86 92 97 88 88

GFSFLT2_sfc_rhum_015.txt.gz
RH
60 64 67 66 56 53 56 65 63 56 55 54 53 54 56 57 57 58 59 60 64 67 65 69 68 68 68
75 68 68 62 61 68 64 55 54 52 53 54 56 57 58 60 60 59 58 60 67 64 64 61 60 68 68
77 69 69 72 78 82 66 60 50 51 54 58 61 64 63 61 61 60 61 62 62 61 61 62 64 66 66
81 84 83 80 88 77 69 62 58 47 55 63 65 62 62 62 63 63 64 65 64 63 64 66 67 68 66
93 87 87 69 73 67 68 64 65 69 72 74 66 63 63 65 63 66 66 65 64 62 65 67 68 69 72
89 84 78 69 64 69 75 83 90 72 80 72 66 67 66 66 66 64 64 66 66 66 66 66 65 67 70
83 79 74 67 78 90 96 94 84 72 73 78 68 71 65 56 65 67 68 68 68 65 64 64 62 63 64
75 70 72 68 77 70 71 78 74 67 68 86 69 70 65 66 68 69 69 67 65 62 62 65 67 65 66
59 64 66 62 61 67 83 88 85 72 65 77 74 79 72 71 66 68 62 62 64 66 67 68 66 66 66
78 70 62 68 63 68 82 94 94 92 68 91 84 82 89 68 68 67 69 69 69 68 68 67 68 68 75
63 63 63 65 68 73 80 94 95 94 72 79 95 90 93 91 73 68 68 69 70 69 70 72 73 74 85
67 70 80 86 85 84 84 88 88 92 85 90 96 95 95 92 87 68 70 71 79 85 86 80 79 77 76
79 85 86 86 88 88 87 86 88 86 85 86 92 93 96 94 92 88 83 78 81 88 92 88 84 86 90
83 79 77 86 86 85 91 88 93 86 79 82 88 92 96 94 93 91 85 94 85 85 85 84 83 83 86
86 84 81 83 86 84 88 91 95 90 87 81 82 86 89 93 95 87 86 86 86 87 89 94 86 84 84
90 91 92 92 90 88 87 92 94 89 89 86 87 90 86 82 82 93 90 90 87 88 88 95 91 83 79
93 93 93 93 88 91 90 91 91 88 87 87 96 96 95 91 73 67 94 93 90 92 89 92 95 89 83